FW3877 Weather Reports


time (UTC)temp
C
wind
direction
speed
KPH
gust
KPH
rain 1hr
cm
rain 24hr
cm
rain mn
cm
humidity
%
barometer
mb
20260506212703 5 90 0.0 1.6 0.00 0.00 0.00 78 1012.4
20260506212204 5 80 0.0 1.6 0.00 0.00 0.00 78 1012.5
20260506211704 5 80 1.6 1.6 0.00 0.00 0.00 78 1012.5
20260506211204 5 78 0.0 3.2 0.00 0.00 0.00 78 1012.4
20260506210704 5 76 1.6 3.2 0.00 0.00 0.00 77 1012.4
20260506210204 5 52 0.0 0.0 0.00 0.00 0.00 77 1012.3
20260506204703 6 52 0.0 0.0 0.00 0.00 0.00 76 1012.2
20260506204203 6 52 0.0 0.0 0.00 0.00 0.00 76 1012.2
20260506203705 6 52 0.0 0.0 0.00 0.00 0.00 76 1012.3
20260506202704 6 52 0.0 0.0 0.00 0.00 0.00 76 1012.2
20260506201704 7 52 0.0 0.0 0.00 0.00 0.00 75 1011.9
20260506201204 7 52 0.0 0.0 0.00 0.00 0.00 75 1011.9
20260506200703 7 52 0.0 0.0 0.00 0.00 0.00 75 1012.0
20260506195204 7 52 0.0 0.0 0.00 0.00 0.00 74 1012.0
20260506194704 7 52 0.0 0.0 0.00 0.00 0.00 74 1012.0
20260506194204 7 52 0.0 0.0 0.00 0.00 0.00 74 1012.2
20260506193704 7 52 0.0 0.0 0.00 0.00 0.00 74 1012.1
20260506193204 7 52 0.0 0.0 0.00 0.00 0.00 74 1012.2
20260506192704 8 52 0.0 1.6 0.00 0.00 0.00 74 1012.3
20260506192204 8 52 1.6 3.2 0.00 0.00 0.00 74 1012.2
20260506191205 8 42 1.6 3.2 0.00 0.00 0.00 74 1012.4
20260506190704 8 27 3.2 4.8 0.00 0.00 0.00 74 1012.4
20260506190204 8 25 3.2 4.8 0.00 0.00 0.00 73 1012.4
20260506185704 8 27 3.2 4.8 0.00 0.00 0.00 73 1012.5
20260506185204 8 14 3.2 8.0 0.00 0.00 0.00 73 1012.4
20260506184704 8 4 3.2 8.0 0.00 0.00 0.00 73 1012.6
20260506184204 8 21 3.2 8.0 0.00 0.00 0.00 72 1012.5
20260506183704 8 13 4.8 8.0 0.00 0.00 0.00 71 1012.5
20260506182704 8 1 4.8 9.7 0.00 0.00 0.00 70 1012.5
20260506182203 9 347 3.2 8.0 0.00 0.00 0.00 70 1012.4
20260506181204 10 335 4.8 9.7 0.00 0.00 0.00 69 1012.4
20260506180704 10 3 4.8 9.7 0.00 0.00 0.00 68 1012.4
20260506180203 10 343 4.8 9.7 0.00 0.00 0.00 69 1012.4
20260506175704 10 6 4.8 12.9 0.00 0.00 0.00 68 1012.4
20260506175204 10 17 6.4 12.9 0.00 0.00 0.00 67 1012.4
20260506174704 10 18 4.8 9.7 0.00 0.00 0.00 67 1012.4
20260506174204 10 0 4.8 4.8 0.00 0.00 0.00 68 1012.3
20260506173703 10 347 3.2 12.9 0.00 0.00 0.00 68 1012.3
20260506173203 10 359 3.2 8.0 0.00 0.00 0.00 66 1012.2
20260506172704 10 349 6.4 12.9 0.00 0.00 0.00 65 1012.3
20260506172203 11 344 4.8 8.0 0.00 0.00 0.00 65 1012.3
20260506171704 10 21 4.8 9.7 0.00 0.00 0.00 65 1012.3
20260506171203 11 349 4.8 8.0 0.00 0.00 0.00 66 1012.3
20260506170703 11 47 4.8 14.5 0.00 0.00 0.00 66 1012.3
20260506165703 11 41 6.4 12.9 0.00 0.00 0.00 65 1012.2
20260506165204 11 24 8.0 14.5 0.00 0.00 0.00 64 1012.2
20260506164704 11 23 8.0 14.5 0.00 0.00 0.00 65 1012.3
20260506163704 11 338 6.4 14.5 0.00 0.00 0.00 66 1012.4
20260506163203 11 8 8.0 12.9 0.00 0.00 0.00 64 1012.4
20260506162704 11 344 4.8 12.9 0.00 0.00 0.00 66 1012.4
20260506161704 11 339 8.0 12.9 0.00 0.00 0.00 65 1012.4
20260506161203 11 336 6.4 19.3 0.00 0.00 0.00 66 1012.4
20260506160704 11 2 6.4 14.5 0.00 0.00 0.00 64 1012.5
20260506160204 11 342 6.4 12.9 0.00 0.00 0.00 65 1012.5
20260506155704 11 0 8.0 16.1 0.00 0.00 0.00 65 1012.5
20260506155204 11 355 8.0 14.5 0.00 0.00 0.00 64 1012.5
20260506154705 11 339 4.8 12.9 0.00 0.00 0.00 64 1012.4
20260506154203 11 0 8.0 12.9 0.00 0.00 0.00 64 1012.4
20260506153703 11 14 11.3 16.1 0.00 0.00 0.00 62 1012.5
20260506153204 11 28 9.7 14.5 0.00 0.00 0.00 63 1012.5
20260506152703 11 9 8.0 16.1 0.00 0.00 0.00 64 1012.5
20260506152203 11 348 8.0 19.3 0.00 0.00 0.00 62 1012.5
20260506151704 12 9 8.0 14.5 0.00 0.00 0.00 63 1012.6
20260506151203 11 32 8.0 11.3 0.00 0.00 0.00 65 1012.6
20260506150703 11 16 8.0 14.5 0.00 0.00 0.00 64 1012.7
20260506145704 12 15 11.3 19.3 0.00 0.00 0.00 64 1012.8
20260506145203 12 1 11.3 19.3 0.00 0.00 0.00 63 1012.8
20260506144705 12 52 8.0 19.3 0.00 0.00 0.00 61 1012.9
20260506144204 12 4 8.0 22.5 0.00 0.00 0.00 63 1012.9
20260506143704 12 325 6.4 12.9 0.00 0.00 0.00 61 1012.9
20260506143204 13 358 4.8 12.9 0.00 0.00 0.00 58 1012.9
20260506142704 13 230 9.7 16.1 0.00 0.00 0.00 58 1012.9
20260506142205 12 218 9.7 20.9 0.00 0.00 0.00 61 1013.0
20260506141205 12 265 3.2 4.8 0.00 0.00 0.00 60 1013.1
20260506140705 12 249 4.8 12.9 0.00 0.00 0.00 60 1013.2
20260506135704 12 203 3.2 4.8 0.00 0.00 0.00 59 1013.3
20260506135204 12 232 4.8 11.3 0.00 0.00 0.00 61 1013.4
20260506134704 12 186 8.0 14.5 0.00 0.00 0.00 60 1013.4
20260506133703 12 307 3.2 4.8 0.00 0.00 0.00 64 1013.6
20260506133204 12 0 4.8 12.9 0.00 0.00 0.00 64 1013.5
20260506132203 11 310 3.2 4.8 0.00 0.00 0.00 65 1013.7
20260506131704 11 30 3.2 4.8 0.00 0.00 0.00 65 1013.7
20260506130703 11 163 1.6 8.0 0.00 0.00 0.00 66 1013.8
20260506130203 11 126 3.2 11.3 0.00 0.00 0.00 65 1013.9
20260506125704 11 33 4.8 12.9 0.00 0.00 0.00 65 1013.9
20260506124704 11 37 4.8 11.3 0.00 0.00 0.00 68 1013.8
20260506124203 11 31 6.4 12.9 0.00 0.00 0.00 66 1013.9
20260506123204 11 28 3.2 9.7 0.00 0.00 0.00 67 1014.0
20260506122704 11 348 3.2 12.9 0.00 0.00 0.00 65 1014.1
20260506122203 11 286 4.8 14.5 0.00 0.00 0.00 64 1014.2
20260506121704 11 27 8.0 12.9 0.00 0.00 0.00 66 1014.2
20260506121204 11 314 4.8 9.7 0.00 0.00 0.00 67 1014.2
20260506120703 11 354 8.0 12.9 0.00 0.00 0.00 68 1014.2
20260506120204 10 337 4.8 14.5 0.00 0.00 0.00 66 1014.2
20260506115203 11 46 4.8 12.9 0.00 0.00 0.00 69 1014.2
20260506114704 11 254 4.8 12.9 0.00 0.00 0.00 68 1014.3
20260506113705 10 293 4.8 16.1 0.00 0.00 0.00 68 1014.5
20260506113203 10 314 3.2 11.3 0.00 0.00 0.00 67 1014.4
20260506112704 10 312 3.2 4.8 0.00 0.00 0.00 70 1014.5
20260506112203 10 310 3.2 12.9 0.00 0.00 0.00 69 1014.5
20260506111704 11 5 8.0 12.9 0.00 0.00 0.00 68 1014.6
20260506111203 11 340 3.2 8.0 0.00 0.00 0.00 68 1014.7
20260506110203 10 45 3.2 9.7 0.00 0.00 0.00 68 1014.6
20260506105704 10 338 4.8 9.7 0.00 0.00 0.00 69 1014.6
20260506105204 10 13 4.8 9.7 0.00 0.00 0.00 72 1014.5
20260506104703 10 95 4.8 11.3 0.00 0.00 0.00 70 1014.5
20260506104204 10 45 3.2 11.3 0.00 0.00 0.00 73 1014.6
20260506102704 9 340 6.4 9.7 0.00 0.00 0.00 72 1014.8
20260506102204 9 287 3.2 4.8 0.00 0.00 0.00 72 1014.7
20260506101705 10 305 4.8 9.7 0.00 0.00 0.00 72 1014.7
20260506100703 10 275 4.8 11.3 0.00 0.00 0.00 74 1014.8
20260506100204 10 283 6.4 14.5 0.00 0.00 0.00 74 1014.8
20260506095703 10 272 1.6 14.5 0.00 0.00 0.00 74 1014.9
20260506095204 10 304 3.2 9.7 0.00 0.00 0.00 74 1015.0
20260506094703 10 316 1.6 11.3 0.00 0.00 0.00 75 1014.9
20260506094204 10 334 3.2 4.8 0.00 0.00 0.00 75 1015.0
20260506093704 10 280 3.2 4.8 0.00 0.00 0.00 76 1015.0
20260506093204 10 328 3.2 4.8 0.00 0.00 0.00 76 1015.1
20260506092704 10 321 1.6 4.8 0.00 0.00 0.00 76 1015.1
20260506092204 10 312 3.2 8.0 0.00 0.00 0.00 77 1015.0
20260506091704 9 323 3.2 8.0 0.00 0.00 0.00 77 1015.1
20260506091203 8 101 1.6 4.8 0.00 0.00 0.00 77 1015.1
20260506090704 8 82 4.8 9.7 0.00 0.00 0.00 77 1015.1
20260506090203 8 48 1.6 3.2 0.00 0.00 0.00 77 1015.2
20260506085703 7 45 4.8 8.0 0.00 0.00 0.00 76 1015.2
20260506084704 8 81 4.8 11.3 0.00 0.00 0.00 78 1015.3
20260506084204 8 302 4.8 8.0 0.00 0.00 0.00 78 1015.3
20260506083704 8 321 4.8 9.7 0.00 0.00 0.00 79 1015.4
20260506083203 8 317 1.6 8.0 0.00 0.00 0.00 81 1015.4
20260506082204 7 276 3.2 4.8 0.00 0.00 0.00 82 1015.5
20260506081704 7 142 4.8 8.0 0.00 0.00 0.00 83 1015.5
20260506081204 7 203 3.2 4.8 0.00 0.00 0.00 84 1015.6
20260506080704 7 234 1.6 4.8 0.00 0.00 0.00 85 1015.7
20260506080204 7 236 1.6 4.8 0.00 0.00 0.00 84 1015.7
20260506073203 5 255 1.6 4.8 0.00 0.03 0.00 87 1015.7
20260506072704 5 234 1.6 4.8 0.00 0.05 0.00 87 1015.6
20260506072204 5 234 1.6 4.8 0.00 0.05 0.00 88 1015.7
20260506071704 4 256 3.2 4.8 0.00 0.05 0.00 88 1015.7
20260506071204 4 207 1.6 3.2 0.00 0.05 0.00 88 1015.8
20260506070204 3 165 0.0 0.0 0.00 0.05 0.00 89 1015.8
20260506062203 1 83 0.0 0.0 0.00 0.05 0.00 88 1015.7
20260506061704 0 83 0.0 0.0 0.00 0.05 0.00 88 1015.7
20260506061204 0 83 0.0 0.0 0.00 0.05 0.00 88 1015.7
20260506060703 0 83 0.0 0.0 0.00 0.05 0.00 88 1015.7
20260506060203 0 83 0.0 0.0 0.00 0.05 0.00 88 1015.7
20260506051205 0 82 0.0 0.0 0.00 0.05 0.00 87 1015.9
20260506050204 -1 82 0.0 0.0 0.00 0.05 0.00 87 1016.0
20260506044704 0 82 0.0 0.0 0.00 0.05 0.00 87 1016.1
20260506043703 0 82 0.0 0.0 0.00 0.05 0.00 87 1016.1
20260506043203 0 82 0.0 0.0 0.00 0.05 0.00 87 1016.1
20260506042704 0 82 0.0 0.0 0.00 0.05 0.00 87 1016.1
20260506042204 0 82 0.0 0.0 0.00 0.05 0.00 87 1016.2
20260506041704 0 82 0.0 0.0 0.00 0.05 0.00 86 1016.2
20260506041203 0 82 0.0 0.0 0.00 0.05 0.00 86 1016.2
20260506040704 0 82 0.0 0.0 0.00 0.05 0.00 86 1016.3
20260506035703 0 82 0.0 0.0 0.00 0.05 0.00 86 1016.4
20260506034704 0 82 0.0 0.0 0.00 0.05 0.00 85 1016.4
20260506034204 0 82 0.0 0.0 0.00 0.05 0.00 85 1016.4
20260506033704 0 82 0.0 0.0 0.00 0.05 0.00 85 1016.4
20260506032704 0 82 0.0 0.0 0.00 0.05 0.00 85 1016.4
20260506032203 0 82 0.0 0.0 0.00 0.05 0.00 85 1016.4
20260506031704 0 82 0.0 0.0 0.00 0.05 0.00 85 1016.4
20260506031204 0 82 0.0 0.0 0.00 0.05 0.00 84 1016.4
20260506030704 0 82 0.0 0.0 0.00 0.05 0.00 84 1016.5
20260506030204 0 82 0.0 0.0 0.00 0.05 0.00 84 1016.6
20260506025703 0 82 0.0 0.0 0.00 0.05 0.00 84 1016.5
20260506025204 0 82 0.0 0.0 0.00 0.05 0.00 84 1016.6
20260506024203 0 82 0.0 0.0 0.00 0.05 0.00 83 1016.7
20260506023704 0 82 0.0 0.0 0.00 0.05 0.00 83 1016.7
20260506022704 1 82 0.0 0.0 0.00 0.05 0.00 83 1016.7
20260506022204 1 82 0.0 0.0 0.00 0.05 0.00 83 1016.7
20260506021703 1 82 0.0 0.0 0.00 0.05 0.00 83 1016.7
20260506021204 1 82 0.0 0.0 0.00 0.05 0.00 83 1016.7
20260506020703 1 82 0.0 0.0 0.00 0.05 0.00 83 1016.7
20260506020203 1 82 0.0 0.0 0.00 0.05 0.00 83 1016.8
20260506015204 1 82 0.0 0.0 0.00 0.05 0.00 83 1016.7
20260506014703 1 82 0.0 0.0 0.00 0.05 0.00 82 1016.7
20260506014204 2 82 0.0 0.0 0.00 0.05 0.00 82 1016.6
20260506013204 2 93 0.0 1.6 0.00 0.05 0.00 81 1016.7
20260506012703 2 103 1.6 3.2 0.00 0.05 0.00 81 1016.8
20260506012204 3 103 0.0 1.6 0.00 0.05 0.00 81 1016.9
20260506010703 3 103 0.0 0.0 0.00 0.05 0.00 81 1017.0
20260506010205 3 103 0.0 1.6 0.00 0.05 0.00 81 1017.1
20260506005704 3 103 1.6 3.2 0.00 0.05 0.00 81 1017.1
20260506005204 4 31 0.0 1.6 0.00 0.05 0.00 80 1017.1
20260506004204 5 31 0.0 0.0 0.00 0.05 0.00 80 1017.3
20260506003703 5 32 0.0 1.6 0.00 0.05 0.00 80 1017.2
20260506003204 5 31 1.6 3.2 0.00 0.05 0.00 80 1017.4
20260506002703 5 31 0.0 1.6 0.00 0.05 0.00 80 1017.4
20260506002204 5 32 1.6 3.2 0.00 0.05 0.00 80 1017.4
20260506001704 5 14 1.6 4.8 0.00 0.05 0.00 80 1017.5
20260506001204 5 17 1.6 3.2 0.00 0.05 0.00 80 1017.4
20260506000205 5 5 0.0 1.6 0.00 0.05 0.00 80 1017.5
20260505235203 5 342 1.6 3.2 0.00 0.05 0.00 79 1017.4
20260505234703 5 342 0.0 1.6 0.00 0.05 0.00 79 1017.3
20260505234204 5 351 1.6 3.2 0.00 0.05 0.00 79 1017.3
20260505233704 6 20 0.0 1.6 0.00 0.05 0.00 79 1017.2
20260505233203 6 20 0.0 4.8 0.00 0.05 0.00 79 1017.2
20260505232703 6 45 3.2 9.7 0.00 0.05 0.00 78 1017.2
20260505231704 6 50 3.2 8.0 0.00 0.05 0.00 78 1017.3
20260505231204 6 69 4.8 8.0 0.00 0.05 0.00 78 1017.3
20260505230703 6 67 3.2 12.9 0.00 0.05 0.00 78 1017.5
20260505230203 6 69 8.0 11.3 0.00 0.05 0.00 78 1017.4
20260505225704 6 80 6.4 12.9 0.00 0.05 0.20 78 1017.5
20260505225204 6 68 6.4 12.9 0.00 0.05 0.20 78 1017.6
20260505224204 6 67 4.8 9.7 0.00 0.05 0.20 77 1017.6
20260505223703 6 64 8.0 14.5 0.00 0.05 0.20 78 1017.6
20260505223203 6 65 4.8 12.9 0.00 0.05 0.20 78 1017.6
20260505222704 6 52 4.8 12.9 0.00 0.05 0.20 78 1017.6
20260505222204 6 50 3.2 4.8 0.00 0.05 0.20 78 1017.5
20260505221703 6 25 3.2 8.0 0.00 0.05 0.20 79 1017.6
20260505221203 5 35 3.2 4.8 0.00 0.05 0.20 79 1017.6
20260505220204 5 58 1.6 4.8 0.00 0.05 0.20 79 1017.6
20260505215703 5 64 1.6 3.2 0.00 0.05 0.20 79 1017.6
20260505214203 6 57 1.6 3.2 0.00 0.05 0.20 80 1017.6
20260505213703 6 55 3.2 4.8 0.00 0.05 0.20 80 1017.6
20260505213203 6 31 1.6 3.2 0.00 0.05 0.20 81 1017.5